Date,TemperatureHighF,TemperatureAvgF,TemperatureLowF,DewpointHighF,DewpointAvgF,DewpointLowF,HumidityHigh,HumidityAvg,HumidityLow,PressureMaxIn,PressureMinIn,WindSpeedMaxMPH,WindSpeedAvgMPH,GustSpeedMaxMPH,PrecipitationSumIn
2013-3-1,26.5,25.3,24.5,20.8,20.2,19.5,82,80,78,29.15,29.11,8,3,8,0.00
2013-3-3,26.3,22.6,19.8,17.5,14.8,12.8,74,72,69,29.09,29.07,2,0,2,0.00
2013-3-4,35.6,27.9,10.4,18.8,16.3,5.7,83,62,48,29.19,29.14,3,1,3,0.09
2013-3-5,38.5,32.1,23.9,25.4,23.0,19.3,82,69,58,29.11,28.91,5,2,5,0.07
2013-3-6,42.1,36.5,31.3,31.1,28.4,26.2,81,72,64,29.26,29.12,5,2,5,0.02
2013-3-7,35.5,32.9,27.5,29.9,25.7,19.4,87,75,66,29.44,29.32,5,2,5,0.01
2013-3-8,46.8,37.2,19.4,31.0,25.8,15.3,85,64,50,29.54,29.46,3,1,3,0.00
2013-3-9,38.7,34.6,29.5,30.7,28.7,25.6,85,79,71,29.41,29.39,4,2,4,0.00
2013-3-10,52.7,52.3,51.8,39.6,39.6,39.5,63,62,61,28.92,28.88,10,5,10,0.00
2013-3-11,52.0,46.9,38.9,46.0,43.5,34.5,91,88,62,28.88,28.56,9,4,9,0.43
2013-3-12,36.9,34.2,28.6,29.8,27.7,23.8,83,77,71,28.97,28.87,8,3,8,0.00
2013-3-13,32.0,28.4,25.4,25.4,19.9,14.3,83,70,61,29.22,28.96,10,5,10,0.01
2013-3-14,40.7,33.4,23.9,22.6,19.8,14.0,76,58,45,29.30,29.14,7,2,7,0.02
2013-3-15,38.2,34.7,29.2,31.6,27.7,18.6,83,76,61,29.13,28.93,5,2,5,0.01
2013-3-17,27.0,24.2,20.3,14.5,13.2,11.7,69,63,59,29.30,29.26,1,0,1,0.00
2013-3-18,34.7,31.1,20.2,31.1,25.9,11.9,90,81,70,29.25,28.64,5,2,5,0.02
2013-3-19,33.5,25.8,23.8,30.0,19.0,15.6,87,75,68,28.98,28.68,8,4,8,0.00
2013-3-20,29.9,24.6,17.3,17.3,14.8,10.9,77,66,55,28.99,28.94,9,3,9,0.00
2013-3-21,31.3,28.1,20.3,24.7,21.6,16.2,84,76,70,28.98,28.90,8,3,8,0.02
2013-3-22,40.0,32.2,25.0,24.5,21.4,18.2,77,65,50,29.08,28.98,6,2,6,0.01
2013-3-23,28.4,28.1,27.5,20.9,20.6,20.0,73,73,73,29.08,29.07,0,0,0,0.00
2013-3-28,52.2,43.4,31.7,29.7,27.1,22.3,76,54,39,29.32,29.28,6,2,6,0.00
2013-3-29,54.7,45.1,31.3,25.9,24.4,22.7,70,46,31,29.34,29.26,2,1,2,0.00
2013-3-31,45.4,45.2,45.0,38.9,37.8,36.9,79,75,72,28.77,28.75,7,5,7,0.00